DELTA 2 R/B, 40060

Orbit data source: Space-Track

DELTA 2 R/B, 40060 is space debris in HEO originally from a launch on Wed, 02 Jul 2014 UTC launched from the Air Force Western Test Range (AFWTR). Debris objects in space refer to the collection of defunct objects orbiting the Earth. Examples of debris include non-operational satellites, rocket bodies, and fragments generated from explosions, collisions, or faulty payload assembly.

Loading next visibility...
Identifier
40060, 2014-035B
Orbit
HEO
Last TLE update
2 days ago
Origin
Manufacturer
Boeing/Pueblo
Mission
Spacecraft
Bus & Motor
DELTA/0020, Unknown motor
Mass
~924 kg wet, 924 kg dry
Launch date (UTC)
2014-07-02 (11 years ago)
Launch vehicle
Unknown
Launch site
Air Force Western Test Range (AFWTR)
Object type
Payload
Rocket body
Debris
Shape & HBR
Cyl + Cone, 6 m
Radar Cross Section
13.836 m², Large (>1 m²)

Expand to show TLE details & history

TLE from 2 days ago
0 DELTA 2 R/B
1 40060U 14035B   25182.57284921  .00000005  00000-0  00000-0 0  9994
2 40060  98.2099  39.9650 3068429 311.2173  26.1475  6.11238355245472
Epoch: 2025-07-01T13:44Z
TLE epoch observation values (Epoch: 2025-07-01T13:44:54.171Z)
Latitude
0.00001°
Longitude
-86.126°
Altitude
3,148.447 km
Speed
7.222 km/s
True Right ascension
02h 39m 51s
True Declination
0° 00' 00"
Sunlit
Object was in daylight at epoch
Visualization orbit readout
Latitude
73.09975°
Longitude
122.45189°
Altitude
9,471.094 km
Speed
4.336 km/s
Apparent Right ascension
15h 09m 50s
Apparent Declination
51° 09' 50"
Sunlit
Object is in daylight
Visualization observer readout
Local Sidereal Time
01:50:37
Azimuth
347.72° N
Elevation
2.711°
Doppler factor
1
Orbital elements
Apogee altitude
10,132.096 km
Perigee altitude
2,378.987 km
Semi-major axis
12,633.678 km
Eccentricity
0.30684
Inclination
98.2099°
RAAN
39.965°
Arg. of periapsis
311.2173°
True anomaly
Unknown
Mean anomaly
26.1475°
Eccentric anomaly
Unknown
Mean motion
1.52844 °/min
Orbital period
235.53 mins
BSTAR
0
Loading maneuver chart data...
Loading SW <> Apogee altitude chart data...
Loading historical data...
Loading historical data...
Loading historical data...
Loading historical data...
Loading historical data...
Loading historical data...
Loading historical data...
Other satellites on launch #35 in the year 2014 (2014-07-02 UTC)

DELTA 2 R/B Visibility forecast

Observer location: undefined°, undefined°

Span
Click to sort rows by Start time (UTC) header in descending order
Start Az.
Max El. time (UTC)
Max El. Az.
Max El.
End time (UTC)
End Az.
50 mins2025-07-03 16:52:41.806Z233.069° WSW2025-07-03 17:08:41.806Z289.628° WNW27.391°2025-07-03 17:42:41.806Z351.315° N
65 mins2025-07-03 21:52:41.806Z17.396° NNE2025-07-03 22:27:41.806Z56.952° ENE14.466°2025-07-03 22:57:41.806Z91.817° ESE
106 mins2025-07-04 01:35:41.806Z9.801° NNE2025-07-04 02:33:41.806Z103.259° ESE44.056°2025-07-04 03:21:41.806Z191.234° SSW
89 mins2025-07-04 05:23:41.806Z14.417° NNE2025-07-04 06:05:41.806Z318.83° NNW35.55°2025-07-04 06:52:41.806Z262.037° W
56 mins2025-07-04 09:01:41.806Z41.383° NE2025-07-04 09:24:41.806Z1.527° NNE23.275°2025-07-04 09:57:41.806Z323.699° NNW
58 mins2025-07-04 12:32:41.806Z121.395° SE2025-07-04 12:50:41.806Z50.571° ENE39.438°2025-07-04 13:30:41.806Z347.309° N
|